| time (UTC) | temp F | wind direction | speed MPH | gust MPH | rain 1hr in | rain 24hr in | rain mn in | humidity % | barometer mb |
| 20260507010327 | 58 | 243 | 1.0 | 4.0 | 0.00 | 0.08 | 0.08 | 99 | 1005.2 |
| 20260507005427 | 58 | 240 | 1.0 | 4.0 | 0.00 | 0.08 | 0.08 | 99 | 1005.3 |
| 20260507004527 | 58 | 239 | 1.0 | 4.0 | 0.00 | 0.08 | 0.08 | 99 | 1005.3 |
| 20260507003627 | 58 | 242 | 1.0 | 5.0 | 0.00 | 0.08 | 0.08 | 99 | 1005.3 |
| 20260507001827 | 57 | 241 | 1.0 | 4.0 | 0.02 | 0.08 | 0.08 | 99 | 1005.1 |
| 20260507000927 | 58 | 223 | 0.0 | 4.0 | 0.03 | 0.08 | 0.08 | 98 | 1005.1 |
| 20260507000032 | 58 | 254 | 1.0 | 6.0 | 0.04 | 0.08 | 0.08 | 98 | 1005.1 |
| 20260506235127 | 58 | 268 | 1.0 | 3.0 | 0.04 | 0.08 | 0.08 | 98 | 1005.0 |
| 20260506234227 | 58 | 241 | 1.0 | 4.0 | 0.04 | 0.08 | 0.08 | 98 | 1005.0 |
| 20260506233327 | 58 | 229 | 1.0 | 4.0 | 0.03 | 0.07 | 0.07 | 98 | 1004.9 |
| 20260506232427 | 58 | 233 | 1.0 | 6.0 | 0.02 | 0.06 | 0.06 | 98 | 1004.9 |
| 20260506231527 | 58 | 233 | 1.0 | 6.0 | 0.02 | 0.06 | 0.06 | 98 | 1005.0 |
| 20260506230627 | 58 | 235 | 1.0 | 5.0 | 0.00 | 0.04 | 0.04 | 98 | 1005.0 |
| 20260506225727 | 58 | 239 | 1.0 | 3.0 | 0.00 | 0.04 | 0.04 | 98 | 1004.9 |
| 20260506224827 | 58 | 232 | 1.0 | 3.0 | 0.00 | 0.04 | 0.04 | 98 | 1005.0 |
| 20260506223927 | 58 | 232 | 1.0 | 4.0 | 0.00 | 0.04 | 0.04 | 98 | 1004.9 |
| 20260506223027 | 58 | 238 | 1.0 | 5.0 | 0.00 | 0.04 | 0.04 | 98 | 1004.8 |
| 20260506222127 | 59 | 205 | 1.0 | 6.0 | 0.00 | 0.04 | 0.04 | 98 | 1004.9 |
| 20260506220328 | 59 | 249 | 2.0 | 7.0 | 0.01 | 0.04 | 0.04 | 98 | 1005.3 |
| 20260506215428 | 59 | 244 | 1.0 | 5.0 | 0.01 | 0.04 | 0.04 | 98 | 1005.3 |
| 20260506214527 | 59 | 234 | 1.0 | 5.0 | 0.02 | 0.04 | 0.04 | 98 | 1005.3 |
| 20260506213627 | 59 | 277 | 1.0 | 4.0 | 0.02 | 0.04 | 0.04 | 98 | 1005.3 |
| 20260506212727 | 59 | 283 | 1.0 | 3.0 | 0.03 | 0.04 | 0.04 | 97 | 1005.5 |
| 20260506211827 | 59 | 232 | 1.0 | 4.0 | 0.03 | 0.04 | 0.04 | 97 | 1005.5 |
| 20260506210927 | 59 | 235 | 1.0 | 4.0 | 0.02 | 0.03 | 0.03 | 97 | 1005.7 |
| 20260506210027 | 60 | 240 | 1.0 | 4.0 | 0.02 | 0.03 | 0.03 | 97 | 1005.6 |
| 20260506205127 | 60 | 231 | 1.0 | 4.0 | 0.03 | 0.03 | 0.03 | 96 | 1005.7 |
| 20260506204227 | 60 | 234 | 1.0 | 4.0 | 0.02 | 0.02 | 0.02 | 96 | 1005.8 |
| 20260506203327 | 60 | 233 | 2.0 | 5.0 | 0.01 | 0.01 | 0.01 | 95 | 1005.9 |
| 20260506202427 | 60 | 229 | 1.0 | 7.0 | 0.01 | 0.01 | 0.01 | 95 | 1005.9 |
| 20260506200627 | 61 | 242 | 2.0 | 5.0 | 0.01 | 0.01 | 0.01 | 94 | 1006.0 |
| 20260506195728 | 62 | 244 | 2.0 | 5.0 | 0.01 | 0.01 | 0.01 | 94 | 1006.1 |
| 20260506194827 | 62 | 243 | 2.0 | 6.0 | 0.00 | 0.00 | 0.00 | 92 | 1006.0 |
| 20260506193027 | 63 | 255 | 1.0 | 3.0 | 0.00 | 0.00 | 0.00 | 91 | 1006.1 |
| 20260506192126 | 63 | 241 | 2.0 | 6.0 | 0.00 | 0.00 | 0.00 | 88 | 1006.1 |
| 20260506191226 | 64 | 252 | 2.0 | 6.0 | 0.00 | 0.00 | 0.00 | 87 | 1006.2 |
| 20260506190326 | 65 | 247 | 2.0 | 5.0 | 0.00 | 0.00 | 0.00 | 84 | 1006.2 |
| 20260506185426 | 66 | 247 | 3.0 | 6.0 | 0.00 | 0.00 | 0.00 | 80 | 1006.2 |
| 20260506184527 | 67 | 259 | 3.0 | 5.0 | 0.00 | 0.00 | 0.00 | 77 | 1006.2 |
| 20260506183628 | 68 | 258 | 3.0 | 8.0 | 0.00 | 0.00 | 0.00 | 75 | 1006.2 |
| 20260506182727 | 69 | 252 | 3.0 | 7.0 | 0.00 | 0.00 | 0.00 | 74 | 1006.4 |
| 20260506181827 | 70 | 250 | 3.0 | 7.0 | 0.00 | 0.00 | 0.00 | 73 | 1006.3 |
| 20260506180927 | 70 | 246 | 3.0 | 8.0 | 0.00 | 0.00 | 0.00 | 71 | 1006.4 |
| 20260506180026 | 70 | 239 | 3.0 | 8.0 | 0.00 | 0.00 | 0.00 | 71 | 1006.3 |
| 20260506175127 | 71 | 235 | 3.0 | 8.0 | 0.00 | 0.00 | 0.00 | 70 | 1006.5 |
| 20260506174227 | 71 | 242 | 2.0 | 6.0 | 0.00 | 0.00 | 0.00 | 69 | 1006.6 |
| 20260506173328 | 71 | 237 | 3.0 | 9.0 | 0.00 | 0.00 | 0.00 | 68 | 1006.8 |
| 20260506172426 | 72 | 252 | 3.0 | 10.0 | 0.00 | 0.00 | 0.00 | 68 | 1006.8 |
| 20260506171526 | 72 | 248 | 2.0 | 10.0 | 0.00 | 0.00 | 0.00 | 68 | 1006.8 |
| 20260506170626 | 72 | 254 | 3.0 | 10.0 | 0.00 | 0.00 | 0.00 | 69 | 1006.7 |
| 20260506165726 | 72 | 246 | 4.0 | 11.0 | 0.00 | 0.00 | 0.00 | 67 | 1006.6 |
| 20260506164827 | 72 | 248 | 3.0 | 10.0 | 0.00 | 0.00 | 0.00 | 68 | 1006.8 |
| 20260506163926 | 72 | 244 | 2.0 | 6.0 | 0.00 | 0.00 | 0.00 | 69 | 1007.0 |
| 20260506163026 | 72 | 248 | 2.0 | 8.0 | 0.00 | 0.00 | 0.00 | 68 | 1007.1 |
| 20260506162126 | 72 | 237 | 3.0 | 8.0 | 0.00 | 0.00 | 0.00 | 68 | 1007.2 |
| 20260506161226 | 72 | 236 | 2.0 | 7.0 | 0.00 | 0.00 | 0.00 | 68 | 1007.3 |
| 20260506160326 | 72 | 223 | 3.0 | 8.0 | 0.00 | 0.00 | 0.00 | 67 | 1007.5 |
| 20260506155426 | 73 | 224 | 2.0 | 9.0 | 0.00 | 0.00 | 0.00 | 67 | 1007.6 |
| 20260506154526 | 72 | 228 | 3.0 | 11.0 | 0.00 | 0.00 | 0.00 | 69 | 1007.7 |
| 20260506153626 | 73 | 236 | 2.0 | 7.0 | 0.00 | 0.00 | 0.00 | 68 | 1007.9 |
| 20260506152726 | 73 | 251 | 2.0 | 7.0 | 0.00 | 0.00 | 0.00 | 68 | 1007.8 |
| 20260506151826 | 72 | 231 | 3.0 | 8.0 | 0.00 | 0.00 | 0.00 | 69 | 1008.0 |
| 20260506150926 | 72 | 233 | 2.0 | 7.0 | 0.00 | 0.00 | 0.00 | 71 | 1008.1 |
| 20260506150027 | 71 | 226 | 2.0 | 6.0 | 0.00 | 0.00 | 0.00 | 70 | 1008.2 |
| 20260506144226 | 71 | 253 | 3.0 | 9.0 | 0.00 | 0.00 | 0.00 | 70 | 1008.2 |
| 20260506143326 | 71 | 243 | 2.0 | 6.0 | 0.00 | 0.00 | 0.00 | 70 | 1008.1 |
| 20260506142427 | 71 | 236 | 3.0 | 8.0 | 0.00 | 0.00 | 0.00 | 71 | 1008.0 |
| 20260506141526 | 71 | 233 | 2.0 | 5.0 | 0.00 | 0.00 | 0.00 | 71 | 1008.0 |
| 20260506140626 | 71 | 242 | 2.0 | 7.0 | 0.00 | 0.00 | 0.00 | 72 | 1008.1 |
| 20260506135727 | 70 | 238 | 3.0 | 6.0 | 0.00 | 0.00 | 0.00 | 72 | 1008.1 |
| 20260506134826 | 70 | 235 | 2.0 | 9.0 | 0.00 | 0.00 | 0.00 | 72 | 1008.2 |
| 20260506133926 | 70 | 252 | 2.0 | 8.0 | 0.00 | 0.00 | 0.00 | 75 | 1008.0 |
| 20260506133026 | 68 | 249 | 2.0 | 6.0 | 0.00 | 0.00 | 0.00 | 77 | 1008.4 |
| 20260506132126 | 67 | 248 | 2.0 | 6.0 | 0.00 | 0.00 | 0.00 | 80 | 1008.7 |
| 20260506131226 | 66 | 220 | 2.0 | 5.0 | 0.00 | 0.00 | 0.00 | 81 | 1008.8 |
| 20260506125426 | 65 | 215 | 1.0 | 5.0 | 0.00 | 0.00 | 0.00 | 83 | 1008.8 |
| 20260506124526 | 64 | 228 | 1.0 | 4.0 | 0.00 | 0.00 | 0.00 | 84 | 1008.8 |
| 20260506122726 | 63 | 242 | 1.0 | 4.0 | 0.00 | 0.00 | 0.00 | 86 | 1008.8 |
| 20260506121826 | 63 | 246 | 1.0 | 4.0 | 0.00 | 0.00 | 0.00 | 87 | 1008.8 |
| 20260506120926 | 62 | 255 | 1.0 | 3.0 | 0.00 | 0.00 | 0.00 | 88 | 1008.7 |
| 20260506115126 | 61 | 255 | 1.0 | 4.0 | 0.00 | 0.00 | 0.00 | 90 | 1009.1 |
| 20260506114226 | 61 | 243 | 1.0 | 3.0 | 0.00 | 0.00 | 0.00 | 90 | 1009.2 |
| 20260506113326 | 61 | 228 | 1.0 | 5.0 | 0.00 | 0.00 | 0.00 | 90 | 1009.3 |
| 20260506112426 | 60 | 228 | 2.0 | 5.0 | 0.00 | 0.00 | 0.00 | 91 | 1009.3 |
| 20260506110626 | 60 | 248 | 1.0 | 4.0 | 0.00 | 0.00 | 0.00 | 92 | 1009.2 |
| 20260506105726 | 59 | 247 | 1.0 | 3.0 | 0.00 | 0.00 | 0.00 | 92 | 1009.1 |
| 20260506103926 | 59 | 235 | 1.0 | 3.0 | 0.00 | 0.00 | 0.00 | 91 | 1009.2 |
| 20260506103026 | 59 | 233 | 1.0 | 3.0 | 0.00 | 0.00 | 0.00 | 91 | 1009.3 |
| 20260506102126 | 59 | 245 | 1.0 | 3.0 | 0.00 | 0.00 | 0.00 | 91 | 1009.2 |
| 20260506101226 | 59 | 258 | 1.0 | 3.0 | 0.00 | 0.00 | 0.00 | 91 | 1009.3 |
| 20260506095427 | 59 | 275 | 1.0 | 4.0 | 0.00 | 0.00 | 0.00 | 91 | 1009.0 |
| 20260506094526 | 59 | 281 | 1.0 | 3.0 | 0.00 | 0.00 | 0.00 | 90 | 1008.9 |
| 20260506093626 | 60 | 252 | 0.0 | 3.0 | 0.00 | 0.00 | 0.00 | 90 | 1008.9 |
| 20260506092726 | 60 | 257 | 1.0 | 4.0 | 0.00 | 0.00 | 0.00 | 90 | 1009.0 |
| 20260506091826 | 60 | 282 | 1.0 | 4.0 | 0.00 | 0.00 | 0.00 | 90 | 1009.0 |
| 20260506090926 | 60 | 273 | 1.0 | 4.0 | 0.00 | 0.00 | 0.00 | 90 | 1009.0 |
| 20260506090026 | 60 | 232 | 1.0 | 5.0 | 0.00 | 0.00 | 0.00 | 89 | 1009.0 |
| 20260506085126 | 60 | 268 | 1.0 | 5.0 | 0.00 | 0.00 | 0.00 | 89 | 1009.1 |
| 20260506083326 | 60 | 265 | 1.0 | 4.0 | 0.00 | 0.00 | 0.00 | 88 | 1009.2 |
| 20260506082426 | 60 | 251 | 1.0 | 4.0 | 0.00 | 0.00 | 0.00 | 88 | 1009.1 |
| 20260506080626 | 60 | 263 | 1.0 | 4.0 | 0.00 | 0.00 | 0.00 | 87 | 1009.2 |
| 20260506073026 | 61 | 255 | 1.0 | 5.0 | 0.00 | 0.00 | 0.00 | 86 | 1009.3 |
| 20260506072126 | 61 | 245 | 2.0 | 7.0 | 0.00 | 0.00 | 0.00 | 86 | 1009.2 |
| 20260506071226 | 61 | 253 | 1.0 | 7.0 | 0.00 | 0.00 | 0.00 | 86 | 1009.1 |
| 20260506070326 | 61 | 235 | 1.0 | 6.0 | 0.00 | 0.00 | 0.00 | 86 | 1009.0 |
| 20260506061826 | 62 | 252 | 2.0 | 7.0 | 0.00 | 0.00 | 0.00 | 83 | 1009.1 |
| 20260506060926 | 62 | 258 | 1.0 | 5.0 | 0.00 | 0.00 | 0.00 | 82 | 1009.0 |
| 20260506050626 | 63 | 239 | 1.0 | 6.0 | 0.00 | 0.00 | 0.00 | 78 | 1009.4 |
| 20260506044827 | 64 | 272 | 2.0 | 6.0 | 0.00 | 0.00 | 0.00 | 78 | 1009.4 |
| 20260506043926 | 64 | 246 | 2.0 | 5.0 | 0.00 | 0.00 | 0.00 | 77 | 1009.5 |
| 20260506042126 | 64 | 255 | 2.0 | 8.0 | 0.00 | 0.00 | 0.00 | 76 | 1009.3 |
| 20260506041227 | 63 | 242 | 2.0 | 8.0 | 0.00 | 0.00 | 0.00 | 76 | 1009.5 |
| 20260506035426 | 63 | 251 | 2.0 | 6.0 | 0.00 | 0.00 | 0.00 | 76 | 1009.4 |
| 20260506033626 | 63 | 252 | 2.0 | 7.0 | 0.00 | 0.00 | 0.00 | 75 | 1009.3 |
| 20260506031826 | 63 | 243 | 2.0 | 7.0 | 0.00 | 0.00 | 0.00 | 75 | 1009.2 |
| 20260506030926 | 63 | 244 | 2.0 | 5.0 | 0.00 | 0.00 | 0.00 | 75 | 1009.2 |
| 20260506030026 | 63 | 250 | 2.0 | 5.0 | 0.00 | 0.00 | 0.00 | 75 | 1009.2 |
| 20260506025126 | 63 | 247 | 2.0 | 6.0 | 0.00 | 0.00 | 0.00 | 75 | 1009.1 |
| 20260506024226 | 63 | 240 | 1.0 | 5.0 | 0.00 | 0.00 | 0.00 | 75 | 1009.2 |
| 20260506023325 | 63 | 259 | 2.0 | 6.0 | 0.00 | 0.00 | 0.00 | 75 | 1009.3 |
| 20260506022425 | 63 | 247 | 2.0 | 6.0 | 0.00 | 0.00 | 0.00 | 75 | 1009.3 |
| 20260506021526 | 63 | 259 | 2.0 | 6.0 | 0.00 | 0.00 | 0.00 | 75 | 1009.3 |
| 20260506020626 | 63 | 255 | 2.0 | 4.0 | 0.00 | 0.00 | 0.00 | 75 | 1009.2 |
| 20260506015726 | 63 | 253 | 1.0 | 4.0 | 0.00 | 0.00 | 0.00 | 75 | 1009.2 |
| 20260506014826 | 63 | 232 | 1.0 | 4.0 | 0.00 | 0.00 | 0.00 | 74 | 1009.2 |
| 20260506013926 | 63 | 243 | 2.0 | 6.0 | 0.00 | 0.00 | 0.00 | 73 | 1009.1 |
| 20260506013026 | 63 | 248 | 2.0 | 6.0 | 0.00 | 0.00 | 0.00 | 73 | 1009.2 |
| 20260506012125 | 64 | 241 | 1.0 | 4.0 | 0.00 | 0.00 | 0.00 | 72 | 1009.1 |
| 20260506011226 | 64 | 268 | 1.0 | 4.0 | 0.00 | 0.00 | 0.00 | 71 | 1009.0 |